Weather History for LIEH - August, 2014

Change the Weather History Date:

Saturday, August 9, 2014

  Actual Average Record
Temperature  
Mean Temperature 82 °F -  
Max Temperature 92 °F - - ()
Min Temperature 73 °F - - ()
Cooling Degree Days 18    
Growing Degree Days 32 (Base 50)    
Moisture  
Dew Point 63 °F    
Average Humidity 46    
Maximum Humidity 83    
Minimum Humidity 22    
Precipitation  
Precipitation 0.00 in - - ()
Sea Level Pressure  
Sea Level Pressure 29.95 in    
Wind  
Wind Speed 6 mph ()    
Max Wind Speed 14 mph    
Max Gust Speed -    
Visibility 12.0 miles    
Events      
T = Trace of Precipitation, MM = Missing Value Source: Averaged Metar Reports

Daily Weather History Graph

Daily Weather History Graph

Search for Another Location

Airport or City:

Trip Planner

Search our weather history database for the weather conditions in past years. The results will help you decide how hot, cold, wet, or windy it might be!

Date:

Astronomy

Aug. 09, 2014 Rise Set
Actual Time 6:31 AM CEST 8:33 PM CEST
Civil Twilight 6:01 AM CEST 9:03 PM CEST
Nautical Twilight 5:25 AM CEST 9:39 PM CEST
Astronomical Twilight 4:45 AM CEST 10:18 PM CEST
Moon 7:21 PM CEST (8/9) 4:53 AM CEST (8/9)
Length of Visible Light 15h 01m
Length of Day
14h 01m
Waxing Gibbous, 97% of the Moon is Illuminated
Aug 9
Waxing Gibbous
Aug 10
Full
Aug 17
Last Quarter
Aug 25
New
Sep 2
First Quarter

Hourly Weather History & Observations

Time (CEST) Temp. Dew Point Humidity Pressure Visibility Wind Dir Wind Speed Gust Speed Precip Events Conditions
1:00 AM 74 °F 62 °F 58% 29.95 in 12 mi NE 10.4 mph - -   Clear
2:00 AM 73 °F 62 °F 60% 29.96 in 12 mi East 9.2 mph - -   Clear
3:00 AM 75 °F 68 °F 72% 29.96 in 12 mi SSE 11.5 mph - -   Clear
4:00 AM 74 °F 70 °F 83% 29.96 in 12 mi ESE 5.8 mph - -   Clear
5:00 AM 76 °F 63 °F 55% 29.96 in 12 mi SSE 6.9 mph - -  
6:00 AM 76 °F 64 °F 59% 29.96 in 12 mi SE 8.1 mph - -   Clear
7:00 AM 75 °F 65 °F 63% 29.96 in 12 mi Calm Calm - -   Clear
8:00 AM 77 °F 65 °F 58% 29.98 in 12 mi Calm Calm - -   Scattered Clouds
9:00 AM 80 °F 64 °F 49% 29.98 in 12 mi NNE 1.2 mph - -   Scattered Clouds
10:00 AM 83 °F 63 °F 40% 29.98 in 12 mi NE 3.5 mph - -  
11:00 AM 87 °F 61 °F 31% 29.97 in 12 mi NW 2.3 mph - -  
12:00 PM 89 °F 57 °F 23% 29.97 in 12 mi SW 1.2 mph - -  
1:00 PM 87 °F 61 °F 31% 29.97 in 12 mi West 3.5 mph - -  
2:00 PM 90 °F 61 °F 28% 29.95 in 12 mi West 1.2 mph - -   Scattered Clouds
3:00 PM 92 °F 58 °F 22% 29.94 in 12 mi WSW 1.2 mph - -   Scattered Clouds
4:00 PM 87 °F 57 °F 26% 29.94 in 12 mi NW 2.3 mph - -   Scattered Clouds
5:00 PM 86 °F 57 °F 28% 29.94 in 12 mi NNW 5.8 mph - -   Scattered Clouds
6:00 PM 86 °F 57 °F 28% 29.94 in 12 mi NNW 4.6 mph - -   Scattered Clouds
7:00 PM 88 °F 63 °F 33% 29.92 in 12 mi NE 11.5 mph - -   Scattered Clouds
8:00 PM 84 °F 62 °F 37% 29.93 in 12 mi NE 13.8 mph - -   Scattered Clouds
9:00 PM 82 °F 60 °F 37% 29.93 in 12 mi NE 10.4 mph - -   Clear
10:00 PM 80 °F 70 °F 65% 29.94 in 12 mi East 11.5 mph - -   Clear
11:00 PM 78 °F 71 °F 74% 29.96 in 12 mi SSE 3.5 mph - -   Clear